Location: Avully
(45.9633°N, 6.0228°E)
Time: 12:16:01
(UTC+00:00)

Cosmos 540 Rocket - Pass Details

Date: 23 May 2024
Orbit: 737 x 751 km, 74.1° (Epoch: 14 June)

Event Time Altitude Azimuth Distance (km) Brightness Sun altitude
Rises 01:08:46 0° 331° (NNW) 3,211 7.3 -19.9°
Reaches altitude 10° 01:11:16 10° 324° (NW) 2,282 6.3 -19.7°
Maximum altitude 01:16:01 38° 257° (WSW) 1,140 4.1 -19.4°
Enters shadow 01:16:56 35° 233° (SW) 1,201 4.0 -19.3°
